{"data":{"norad_id":87304,"epoch":"2026-05-23T20:43:48.902880Z","epoch_age_seconds":169148,"freshness":"FRESH","line1":"1 87304U          26143.86376045  .00000911  00000+0  13685-3 0  9993","line2":"2 87304  74.0186   3.3992 0018489 289.2605  70.6569 14.76054030670396","mean_motion":14.7605403,"eccentricity":0.0018489,"inclination_deg":74.0186,"raan_deg":3.3992,"arg_perigee_deg":289.2605,"mean_anomaly_deg":70.6569,"bstar":0.00013685,"rev_number":67039,"period_min":97.557404453548,"perigee_km":628.82820900189,"apogee_km":654.78655934569,"semimajor_km":7019.9443841738,"source":"CELESTRAK","updated_at":"2026-05-25T13:38:11.668073Z"}}